When you browse on this site, cookies collect data to enhance your experience and personalize the content and advertising you see.
Visit our Privacy Policy to learn more. By continuing to use the site, you agree to this use of cookies and data.
  • In Romania
  • List of Countries
  • For 7 days
  • Water Temperature
  • Satellite Maps
  • Weather Map
  • Weather Widgets
  • user-avatar
    Login

    Hourly Weather Staronakaryakovo

    Today, 23 July, Tuesday

    Time Temperature Precipitation Wind Pressure Humidity
    00:00 +15°C° 0 mm 1 mps 742 mmHg 94%
    01:00 +14°C° 0 mm 1 mps 741 mmHg 95%
    02:00 +14°C° 0 mm 1 mps 742 mmHg 95%
    03:00 +14°C° 0 mm 1 mps 742 mmHg 96%
    04:00 +13°C° 0 mm 1 mps 742 mmHg 97%
    05:00 +14°C° 0 mm 1 mps 742 mmHg 96%
    06:00 +15°C° 0 mm 2 mps 742 mmHg 95%
    07:00 +16°C° 0 mm 2 mps 742 mmHg 95%
    08:00 +17°C° 0.1 mm 2 mps 742 mmHg 91%
    09:00 +18°C° 0.1 mm 3 mps 742 mmHg 88%
    10:00 +19°C° 0.1 mm 3 mps 742 mmHg 85%
    11:00 +19°C° 0.6 mm 4 mps 742 mmHg 84%
    12:00 +20°C° 0.6 mm 4 mps 743 mmHg 83%
    13:00 +20°C° 0.6 mm 4 mps 743 mmHg 82%
    14:00 +20°C° 0.8 mm 4 mps 743 mmHg 83%
    15:00 +20°C° 0.8 mm 4 mps 743 mmHg 84%
    16:00 +20°C° 0.8 mm 4 mps 743 mmHg 84%
    17:00 +20°C° 0.4 mm 4 mps 743 mmHg 87%
    18:00 +19°C° 0.4 mm 3 mps 743 mmHg 89%
    19:00 +19°C° 0.4 mm 3 mps 743 mmHg 91%
    20:00 +17°C° 0 mm 3 mps 744 mmHg 93%
    21:00 +16°C° 0 mm 3 mps 744 mmHg 94%
    22:00 +15°C° 0 mm 2 mps 744 mmHg 96%
    23:00 +15°C° 0 mm 2 mps 744 mmHg 96%

    Tomorrow, 24 July, Wednesday

    Time Temperature Precipitation Wind Pressure Humidity
    00:00 +14°C° 0 mm 2 mps 744 mmHg 96%
    01:00 +14°C° 0 mm 2 mps 744 mmHg 97%
    02:00 +14°C° 0 mm 2 mps 744 mmHg 97%
    03:00 +14°C° 0 mm 2 mps 745 mmHg 97%
    04:00 +13°C° 0 mm 2 mps 745 mmHg 98%
    05:00 +14°C° 0 mm 2 mps 745 mmHg 97%
    06:00 +15°C° 0 mm 2 mps 745 mmHg 95%
    07:00 +16°C° 0 mm 1 mps 745 mmHg 94%
    08:00 +18°C° 0 mm 2 mps 745 mmHg 89%
    09:00 +19°C° 0 mm 2 mps 746 mmHg 83%
    10:00 +21°C° 0 mm 2 mps 746 mmHg 77%
    11:00 +21°C° 0.4 mm 2 mps 746 mmHg 78%
    12:00 +22°C° 0.4 mm 3 mps 746 mmHg 79%
    13:00 +22°C° 0.4 mm 3 mps 746 mmHg 79%
    14:00 +24°C° 0.7 mm 3 mps 746 mmHg 79%
    15:00 +24°C° 0.7 mm 3 mps 746 mmHg 78%
    16:00 +24°C° 0.7 mm 2 mps 746 mmHg 77%
    17:00 +24°C° 0.3 mm 2 mps 746 mmHg 80%
    18:00 +23°C° 0.3 mm 2 mps 746 mmHg 83%
    19:00 +23°C° 0.3 mm 2 mps 746 mmHg 86%
    20:00 +20°C° 0 mm 2 mps 746 mmHg 87%
    21:00 +19°C° 0 mm 2 mps 746 mmHg 89%
    22:00 +18°C° 0 mm 2 mps 747 mmHg 90%
    23:00 +17°C° 0 mm 2 mps 747 mmHg 90%

    Day after tomorrow, 25 July, Thursday

    Time Temperature Precipitation Wind Pressure Humidity
    00:00 +17°C° 0 mm 2 mps 747 mmHg 91%
    01:00 +16°C° 0 mm 2 mps 747 mmHg 91%
    02:00 +16°C° 0 mm 2 mps 747 mmHg 92%
    03:00 +15°C° 0 mm 2 mps 747 mmHg 92%
    04:00 +15°C° 0 mm 2 mps 747 mmHg 92%
    05:00 +16°C° 0 mm 2 mps 748 mmHg 91%
    06:00 +17°C° 0 mm 2 mps 748 mmHg 90%
    07:00 +19°C° 0 mm 3 mps 748 mmHg 88%
    08:00 +20°C° 0 mm 3 mps 748 mmHg 82%
    09:00 +22°C° 0 mm 3 mps 748 mmHg 75%
    10:00 +25°C° 0 mm 3 mps 748 mmHg 68%
    11:00 +26°C° 0 mm 3 mps 748 mmHg 63%
    12:00 +27°C° 0 mm 3 mps 748 mmHg 58%
    13:00 +27°C° 0 mm 3 mps 748 mmHg 53%
    14:00 +28°C° 0 mm 3 mps 748 mmHg 55%
    15:00 +28°C° 0 mm 3 mps 748 mmHg 57%
    16:00 +28°C° 0 mm 3 mps 748 mmHg 59%
    17:00 +26°C° 0 mm 3 mps 748 mmHg 65%
    18:00 +25°C° 0 mm 3 mps 748 mmHg 70%
    19:00 +24°C° 0 mm 2 mps 748 mmHg 76%
    20:00 +21°C° 0 mm 2 mps 748 mmHg 78%
    21:00 +20°C° 0 mm 2 mps 748 mmHg 80%
    22:00 +18°C° 0 mm 2 mps 748 mmHg 83%
    23:00 +18°C° 0 mm 2 mps 748 mmHg 83%

    26 July, Friday

    Time Temperature Precipitation Wind Pressure Humidity
    00:00 +18°C° 0 mm 2 mps 748 mmHg 84%
    01:00 +17°C° 0 mm 2 mps 749 mmHg 85%
    02:00 +17°C° 0 mm 2 mps 748 mmHg 83%
    03:00 +16°C° 0 mm 2 mps 748 mmHg 81%
    04:00 +16°C° 0 mm 2 mps 748 mmHg 80%
    05:00 +18°C° 0 mm 1 mps 748 mmHg 77%
    06:00 +20°C° 0 mm 1 mps 748 mmHg 74%
    07:00 +21°C° 0 mm 1 mps 749 mmHg 71%
    08:00 +23°C° 0 mm 1 mps 749 mmHg 67%
    09:00 +24°C° 0 mm 1 mps 748 mmHg 62%
    10:00 +26°C° 0 mm 2 mps 748 mmHg 57%
    11:00 +26°C° 0 mm 2 mps 748 mmHg 55%
    12:00 +27°C° 0 mm 2 mps 748 mmHg 54%
    13:00 +28°C° 0 mm 2 mps 748 mmHg 52%
    14:00 +28°C° 0 mm 2 mps 747 mmHg 53%
    15:00 +28°C° 0 mm 2 mps 747 mmHg 54%
    16:00 +28°C° 0 mm 2 mps 747 mmHg 54%
    17:00 +27°C° 0 mm 2 mps 746 mmHg 62%
    18:00 +25°C° 0 mm 2 mps 746 mmHg 69%
    19:00 +24°C° 0 mm 2 mps 746 mmHg 76%
    20:00 +23°C° 0 mm 2 mps 746 mmHg 80%
    21:00 +20°C° 0 mm 2 mps 746 mmHg 83%
    22:00 +19°C° 0 mm 2 mps 746 mmHg 87%
    23:00 +19°C° 0 mm 1 mps 745 mmHg 87%

    27 July, Saturday

    Time Temperature Precipitation Wind Pressure Humidity
    00:00 +19°C° 0 mm 1 mps 745 mmHg 87%
    01:00 +18°C° 0 mm 1 mps 745 mmHg 87%
    02:00 +18°C° 0 mm 1 mps 745 mmHg 87%
    03:00 +16°C° 0 mm 1 mps 744 mmHg 86%
    04:00 +16°C° 0 mm 1 mps 744 mmHg 86%
    05:00 +16°C° 0 mm 0 mps 744 mmHg 83%
    06:00 +18°C° 0 mm 0 mps 744 mmHg 80%
    07:00 +19°C° 0 mm 0 mps 744 mmHg 78%
    08:00 +20°C° 0.1 mm 0 mps 743 mmHg 74%
    09:00 +22°C° 0.1 mm 0 mps 743 mmHg 71%
    10:00 +23°C° 0.1 mm 0 mps 743 mmHg 67%
    11:00 +24°C° 0.3 mm 0 mps 742 mmHg 65%
    12:00 +24°C° 0.3 mm 0 mps 742 mmHg 63%
    13:00 +26°C° 0.3 mm 1 mps 741 mmHg 60%
    14:00 +24°C° 0.2 mm 0 mps 741 mmHg 60%
    15:00 +24°C° 0.2 mm 0 mps 740 mmHg 59%
    16:00 +24°C° 0.2 mm 0 mps 740 mmHg 59%
    17:00 +25°C° 0.3 mm 1 mps 739 mmHg 66%
    18:00 +24°C° 0.3 mm 1 mps 739 mmHg 72%
    19:00 +23°C° 0.3 mm 1 mps 738 mmHg 79%
    20:00 +22°C° 0 mm 1 mps 738 mmHg 82%
    21:00 +20°C° 0 mm 1 mps 738 mmHg 85%
    22:00 +17°C° 0 mm 0 mps 737 mmHg 87%
    23:00 +18°C° 0 mm 1 mps 737 mmHg 88%

    28 July, Sunday

    Time Temperature Precipitation Wind Pressure Humidity
    00:00 +18°C° 0 mm 1 mps 736 mmHg 88%
    01:00 +16°C° 0 mm 1 mps 736 mmHg 89%
    02:00 +16°C° 0 mm 1 mps 735 mmHg 90%
    03:00 +16°C° 0 mm 2 mps 735 mmHg 92%
    04:00 +15°C° 0 mm 2 mps 734 mmHg 93%
    05:00 +16°C° 0.1 mm 2 mps 734 mmHg 91%
    06:00 +17°C° 0.1 mm 3 mps 733 mmHg 90%
    07:00 +18°C° 0.1 mm 3 mps 733 mmHg 88%
    08:00 +19°C° 0.6 mm 3 mps 732 mmHg 85%
    09:00 +20°C° 0.6 mm 4 mps 731 mmHg 83%
    10:00 +21°C° 0.6 mm 4 mps 731 mmHg 81%
    11:00 +21°C° 1.5 mm 4 mps 731 mmHg 81%
    12:00 +21°C° 1.5 mm 4 mps 730 mmHg 82%
    13:00 +22°C° 1.5 mm 4 mps 730 mmHg 82%
    14:00 +21°C° 1.3 mm 3 mps 730 mmHg 84%
    15:00 +21°C° 1.3 mm 3 mps 730 mmHg 86%
    16:00 +20°C° 1.3 mm 3 mps 729 mmHg 88%
    17:00 +19°C° 0.6 mm 3 mps 729 mmHg 91%
    18:00 +17°C° 0.6 mm 4 mps 729 mmHg 93%
    19:00 +14°C° 0.6 mm 4 mps 729 mmHg 96%
    20:00 +13°C° 0.5 mm 4 mps 729 mmHg 97%
    21:00 +13°C° 0.5 mm 4 mps 729 mmHg 97%
    22:00 +12°C° 0.5 mm 4 mps 729 mmHg 98%
    23:00 +12°C° 0.4 mm 4 mps 729 mmHg 97%
    Show more